Time,TemperatureF,DewpointF,PressureIn,WindDirection,WindDirectionDegrees,WindSpeedMPH,WindSpeedGustMPH,Humidity,HourlyPrecipIn,Conditions,Clouds,dailyrainin,SolarRadiationWatts/m^2,SoftwareType,DateUTC
2013-02-18 00:22:00,12.0,8.0,-100.00,NW,310,6.0,15.0,83,0.00,,,0.01,0.000000,,2013-02-18 07:22:00,
2013-02-18 00:32:00,12.0,8.0,-100.00,NW,310,6.0,15.0,83,0.00,,,0.01,0.000000,,2013-02-18 07:32:00,
2013-02-18 00:42:00,12.0,8.0,-100.00,NW,310,6.0,15.0,83,0.00,,,0.01,0.000000,,2013-02-18 07:42:00,
2013-02-18 00:51:00,12.0,8.0,-100.00,NW,310,6.0,15.0,83,0.00,,,0.01,0.000000,,2013-02-18 07:51:00,
2013-02-18 01:21:00,11.0,6.0,-100.00,NW,311,7.0,19.0,80,0.00,,,0.01,0.000000,,2013-02-18 08:21:00,
2013-02-18 01:32:00,11.0,6.0,-100.00,NW,311,7.0,19.0,80,0.00,,,0.01,0.000000,,2013-02-18 08:32:00,
2013-02-18 01:42:00,11.0,6.0,-100.00,NW,311,7.0,19.0,80,0.00,,,0.01,0.000000,,2013-02-18 08:42:00,
2013-02-18 01:52:00,11.0,6.0,-100.00,NW,311,7.0,19.0,80,0.00,,,0.01,0.000000,,2013-02-18 08:52:00,
2013-02-18 02:22:00,11.0,6.0,-100.00,NW,306,4.0,16.0,80,0.00,,,0.01,0.000000,,2013-02-18 09:22:00,
2013-02-18 02:32:00,11.0,6.0,-100.00,NW,306,4.0,16.0,80,0.00,,,0.01,0.000000,,2013-02-18 09:32:00,
2013-02-18 02:42:00,11.0,6.0,-100.00,NW,306,4.0,16.0,80,0.00,,,0.01,0.000000,,2013-02-18 09:42:00,
2013-02-18 02:51:00,11.0,6.0,-100.00,NW,306,4.0,16.0,80,0.00,,,0.01,0.000000,,2013-02-18 09:51:00,
2013-02-18 03:21:00,10.0,5.0,-100.00,WNW,296,5.0,15.0,79,0.00,,,0.01,0.000000,,2013-02-18 10:21:00,
2013-02-18 03:32:00,10.0,5.0,-100.00,WNW,296,5.0,15.0,79,0.00,,,0.01,0.000000,,2013-02-18 10:32:00,
2013-02-18 03:42:00,10.0,5.0,-100.00,WNW,296,5.0,15.0,79,0.00,,,0.01,0.000000,,2013-02-18 10:42:00,
2013-02-18 03:52:00,10.0,5.0,-100.00,WNW,296,5.0,15.0,79,0.00,,,0.01,0.000000,,2013-02-18 10:52:00,
2013-02-18 04:22:00,9.0,2.0,-100.00,NW,319,3.0,12.0,74,0.00,,,-99.99,0.000000,,2013-02-18 11:22:00,
2013-02-18 04:32:00,9.0,2.0,-100.00,NW,319,3.0,12.0,74,0.00,,,-99.99,0.000000,,2013-02-18 11:32:00,
2013-02-18 04:42:00,9.0,2.0,-100.00,NW,319,3.0,12.0,74,0.00,,,-99.99,0.000000,,2013-02-18 11:42:00,
2013-02-18 04:52:00,9.0,2.0,-100.00,NW,319,3.0,12.0,74,0.00,,,-99.99,0.000000,,2013-02-18 11:52:00,
2013-02-18 05:22:00,8.0,1.0,-100.00,WNW,302,7.0,13.0,74,0.00,,,0.01,0.000000,,2013-02-18 12:22:00,
2013-02-18 05:32:00,8.0,1.0,-100.00,WNW,302,7.0,13.0,74,0.00,,,0.01,0.000000,,2013-02-18 12:32:00,
2013-02-18 05:42:00,8.0,1.0,-100.00,WNW,302,7.0,13.0,74,0.00,,,0.01,0.000000,,2013-02-18 12:42:00,
2013-02-18 05:52:00,8.0,1.0,-100.00,WNW,302,7.0,13.0,74,0.00,,,0.01,0.000000,,2013-02-18 12:52:00,
2013-02-18 06:22:00,7.0,1.0,-100.00,NW,306,3.0,12.0,76,0.00,,,0.01,0.000000,,2013-02-18 13:22:00,
2013-02-18 06:32:00,7.0,1.0,-100.00,NW,306,3.0,12.0,76,0.00,,,0.01,0.000000,,2013-02-18 13:32:00,
2013-02-18 06:42:00,7.0,1.0,-100.00,NW,306,3.0,12.0,76,0.00,,,0.01,0.000000,,2013-02-18 13:42:00,
2013-02-18 06:53:00,7.0,1.0,-100.00,NW,306,3.0,12.0,76,0.00,,,0.01,0.000000,,2013-02-18 13:53:00,
2013-02-18 07:22:00,7.0,2.0,-100.00,WNW,302,7.0,12.0,78,0.00,,,0.01,0.000000,,2013-02-18 14:22:00,
2013-02-18 07:33:00,7.0,2.0,-100.00,WNW,302,7.0,12.0,78,0.00,,,0.01,0.000000,,2013-02-18 14:33:00,
2013-02-18 07:42:00,7.0,2.0,-100.00,WNW,302,7.0,12.0,78,0.00,,,0.01,0.000000,,2013-02-18 14:42:00,
2013-02-18 07:53:00,7.0,2.0,-100.00,WNW,302,7.0,12.0,78,0.00,,,0.01,0.000000,,2013-02-18 14:53:00,
2013-02-18 08:22:00,8.0,3.0,-100.00,WNW,300,7.0,17.0,78,0.00,,,0.01,24.000000,,2013-02-18 15:22:00,
2013-02-18 08:32:00,8.0,3.0,-100.00,WNW,300,7.0,17.0,78,0.00,,,0.01,24.000000,,2013-02-18 15:32:00,
2013-02-18 08:42:00,8.0,3.0,-100.00,WNW,300,7.0,17.0,78,0.00,,,0.01,24.000000,,2013-02-18 15:42:00,
2013-02-18 08:52:00,8.0,3.0,-100.00,WNW,300,7.0,17.0,78,0.00,,,0.01,24.000000,,2013-02-18 15:52:00,
2013-02-18 09:32:00,10.0,3.0,-100.00,WNW,297,7.0,12.0,73,0.00,,,0.01,147.000000,,2013-02-18 16:32:00,
2013-02-18 09:42:00,10.0,3.0,-100.00,WNW,297,7.0,12.0,73,0.00,,,0.01,147.000000,,2013-02-18 16:42:00,
2013-02-18 09:52:00,10.0,3.0,-100.00,WNW,297,7.0,12.0,73,0.00,,,0.01,147.000000,,2013-02-18 16:52:00,
2013-02-18 10:22:00,13.0,2.0,-100.00,WNW,295,7.0,16.0,61,0.00,,,0.01,335.000000,,2013-02-18 17:22:00,
2013-02-18 10:32:00,13.0,2.0,-100.00,WNW,295,7.0,16.0,61,0.00,,,0.01,335.000000,,2013-02-18 17:32:00,
2013-02-18 10:42:00,13.0,2.0,-100.00,WNW,295,7.0,16.0,61,0.00,,,0.01,335.000000,,2013-02-18 17:42:00,
2013-02-18 10:52:00,13.0,2.0,-100.00,WNW,295,7.0,16.0,61,0.00,,,0.01,335.000000,,2013-02-18 17:52:00,
2013-02-18 11:23:00,18.0,2.0,-100.00,NNW,329,6.0,14.0,48,0.00,,,0.01,505.000000,,2013-02-18 18:23:00,
2013-02-18 11:32:00,18.0,2.0,-100.00,NNW,329,6.0,14.0,48,0.00,,,0.01,505.000000,,2013-02-18 18:32:00,
2013-02-18 11:42:00,18.0,2.0,-100.00,NNW,329,6.0,14.0,48,0.00,,,0.01,505.000000,,2013-02-18 18:42:00,
2013-02-18 11:52:00,18.0,2.0,-100.00,NNW,329,6.0,14.0,48,0.00,,,0.01,505.000000,,2013-02-18 18:52:00,
2013-02-18 12:22:00,19.0,4.0,-100.00,NW,324,7.0,15.0,51,0.00,,,0.00,543.000000,,2013-02-18 19:22:00,
2013-02-18 12:33:00,19.0,4.0,-100.00,NW,324,7.0,15.0,51,0.00,,,0.00,543.000000,,2013-02-18 19:33:00,
2013-02-18 12:42:00,19.0,4.0,-100.00,NW,324,7.0,15.0,51,0.00,,,0.00,543.000000,,2013-02-18 19:42:00,
2013-02-18 12:52:00,19.0,4.0,-100.00,NW,324,7.0,15.0,51,0.00,,,0.00,543.000000,,2013-02-18 19:52:00,
2013-02-18 13:23:00,20.0,-5.0,-100.00,WNW,303,13.0,25.0,32,0.00,,,0.00,722.000000,,2013-02-18 20:23:00,
2013-02-18 13:33:00,20.0,-5.0,-100.00,WNW,303,13.0,25.0,32,0.00,,,0.00,722.000000,,2013-02-18 20:33:00,
2013-02-18 13:42:00,20.0,-5.0,-100.00,WNW,303,13.0,25.0,32,0.00,,,0.00,722.000000,,2013-02-18 20:42:00,
2013-02-18 13:52:00,20.0,-5.0,-100.00,WNW,303,13.0,25.0,32,0.00,,,0.00,722.000000,,2013-02-18 20:52:00,
2013-02-18 14:22:00,22.0,-3.0,-100.00,WNW,292,10.0,24.0,33,0.00,,,0.00,700.000000,,2013-02-18 21:22:00,
2013-02-18 14:32:00,22.0,-3.0,-100.00,WNW,292,10.0,24.0,33,0.00,,,0.00,700.000000,,2013-02-18 21:32:00,
2013-02-18 14:42:00,22.0,-3.0,-100.00,WNW,292,10.0,24.0,33,0.00,,,0.00,700.000000,,2013-02-18 21:42:00,
2013-02-18 14:52:00,22.0,-3.0,-100.00,WNW,292,10.0,24.0,33,0.00,,,0.00,700.000000,,2013-02-18 21:52:00,
2013-02-18 15:22:00,22.0,-3.0,-100.00,WNW,289,11.0,19.0,32,0.00,,,0.00,592.000000,,2013-02-18 22:22:00,
2013-02-18 15:33:00,22.0,-3.0,-100.00,WNW,289,11.0,19.0,32,0.00,,,0.00,592.000000,,2013-02-18 22:33:00,
2013-02-18 15:43:00,22.0,-3.0,-100.00,WNW,289,11.0,19.0,32,0.00,,,0.00,592.000000,,2013-02-18 22:43:00,
2013-02-18 15:52:00,22.0,-3.0,-100.00,WNW,289,11.0,19.0,32,0.00,,,0.00,592.000000,,2013-02-18 22:52:00,
2013-02-18 16:23:00,23.0,0.0,-100.00,WNW,293,7.0,19.0,36,0.00,,,0.00,451.000000,,2013-02-18 23:23:00,
2013-02-18 16:33:00,23.0,0.0,-100.00,WNW,293,7.0,19.0,36,0.00,,,0.00,451.000000,,2013-02-18 23:33:00,
2013-02-18 16:42:00,23.0,0.0,-100.00,WNW,293,7.0,19.0,36,0.00,,,0.00,451.000000,,2013-02-18 23:42:00,
2013-02-18 16:52:00,23.0,0.0,-100.00,WNW,293,7.0,19.0,36,0.00,,,0.00,451.000000,,2013-02-18 23:52:00,
2013-02-18 17:22:00,20.0,-5.0,-100.00,NW,314,7.0,17.0,32,0.00,,,0.00,242.000000,,2013-02-19 00:22:00,
2013-02-18 17:34:00,20.0,-5.0,-100.00,NW,314,7.0,17.0,32,0.00,,,0.00,242.000000,,2013-02-19 00:34:00,
2013-02-18 17:43:00,20.0,-5.0,-100.00,NW,314,7.0,17.0,32,0.00,,,0.00,242.000000,,2013-02-19 00:43:00,
2013-02-18 17:53:00,20.0,-5.0,-100.00,NW,314,7.0,17.0,32,0.00,,,0.00,242.000000,,2013-02-19 00:53:00,
2013-02-18 18:24:00,15.0,-5.0,-100.00,NNW,342,4.0,11.0,40,0.00,,,0.00,26.000000,,2013-02-19 01:24:00,
2013-02-18 18:34:00,15.0,-5.0,-100.00,NNW,342,4.0,11.0,40,0.00,,,0.00,26.000000,,2013-02-19 01:34:00,
2013-02-18 18:43:00,15.0,-5.0,-100.00,NNW,342,4.0,11.0,40,0.00,,,0.00,26.000000,,2013-02-19 01:43:00,
2013-02-18 18:53:00,15.0,-5.0,-100.00,NNW,342,4.0,11.0,40,0.00,,,0.00,26.000000,,2013-02-19 01:53:00,
2013-02-18 19:23:00,10.0,-6.0,-100.00,East,97,4.0,8.0,48,0.00,,,0.00,0.000000,,2013-02-19 02:23:00,
2013-02-18 19:34:00,10.0,-6.0,-100.00,East,97,4.0,8.0,48,0.00,,,0.00,0.000000,,2013-02-19 02:34:00,
2013-02-18 19:42:00,10.0,-6.0,-100.00,East,97,4.0,8.0,48,0.00,,,0.00,0.000000,,2013-02-19 02:42:00,
2013-02-18 19:53:00,10.0,-6.0,-100.00,East,97,4.0,8.0,48,0.00,,,0.00,0.000000,,2013-02-19 02:53:00,
2013-02-18 20:24:00,7.0,-6.0,-100.00,SSE,151,3.0,6.0,55,0.00,,,0.00,0.000000,,2013-02-19 03:24:00,
2013-02-18 20:34:00,7.0,-6.0,-100.00,SSE,151,3.0,6.0,55,0.00,,,0.00,0.000000,,2013-02-19 03:34:00,
2013-02-18 20:44:00,7.0,-6.0,-100.00,SSE,151,3.0,6.0,55,0.00,,,0.00,0.000000,,2013-02-19 03:44:00,
2013-02-18 20:53:00,7.0,-6.0,-100.00,SSE,151,3.0,6.0,55,0.00,,,0.00,0.000000,,2013-02-19 03:53:00,
2013-02-18 21:23:00,5.0,-6.0,-100.00,NE,51,2.0,5.0,60,0.00,,,0.00,0.000000,,2013-02-19 04:23:00,
2013-02-18 21:33:00,5.0,-6.0,-100.00,NE,51,2.0,5.0,60,0.00,,,0.00,0.000000,,2013-02-19 04:33:00,
2013-02-18 21:43:00,5.0,-6.0,-100.00,NE,51,2.0,5.0,60,0.00,,,0.00,0.000000,,2013-02-19 04:43:00,
2013-02-18 21:52:00,5.0,-6.0,-100.00,NE,51,2.0,5.0,60,0.00,,,0.00,0.000000,,2013-02-19 04:52:00,
2013-02-18 22:22:00,3.0,-7.0,-100.00,ESE,118,2.0,4.0,63,0.00,,,0.00,0.000000,,2013-02-19 05:22:00,
2013-02-18 22:32:00,3.0,-7.0,-100.00,ESE,118,2.0,4.0,63,0.00,,,0.00,0.000000,,2013-02-19 05:32:00,
2013-02-18 22:43:00,3.0,-7.0,-100.00,ESE,118,2.0,4.0,63,0.00,,,0.00,0.000000,,2013-02-19 05:43:00,
2013-02-18 22:52:00,3.0,-7.0,-100.00,ESE,118,2.0,4.0,63,0.00,,,0.00,0.000000,,2013-02-19 05:52:00,
2013-02-18 23:22:00,1.0,-9.0,-100.00,SE,133,3.0,6.0,62,0.00,,,0.00,0.000000,,2013-02-19 06:22:00,
2013-02-18 23:32:00,1.0,-9.0,-100.00,SE,133,3.0,6.0,62,0.00,,,0.00,0.000000,,2013-02-19 06:32:00,
2013-02-18 23:42:00,1.0,-9.0,-100.00,SE,133,3.0,6.0,62,0.00,,,0.00,0.000000,,2013-02-19 06:42:00,
2013-02-18 23:52:00,1.0,-9.0,-100.00,SE,133,3.0,6.0,62,0.00,,,0.00,0.000000,,2013-02-19 06:52:00,